Time,TemperatureF,DewpointF,PressureIn,WindDirection,WindDirectionDegrees,WindSpeedMPH,WindSpeedGustMPH,Humidity,HourlyPrecipIn,Conditions,Clouds,dailyrainin,SoftwareType,DateUTC
2013-02-27 00:01:00,58.0,13.0,30.12,NNW,340,8.0,11.0,17,0.00,,,0.00,,2013-02-27 07:01:00,
2013-02-27 00:11:00,58.0,13.0,30.12,NNW,340,8.0,11.0,17,0.00,,,0.00,,2013-02-27 07:11:00,
2013-02-27 00:21:00,57.0,13.0,30.12,NNW,336,5.0,9.0,17,0.00,,,0.00,,2013-02-27 07:21:00,
2013-02-27 00:31:00,57.0,13.0,30.13,NNW,328,5.0,6.0,17,0.00,,,0.00,,2013-02-27 07:31:00,
2013-02-27 00:41:00,57.0,13.0,30.13,NNW,328,5.0,6.0,17,0.00,,,0.00,,2013-02-27 07:41:00,
2013-02-27 00:52:00,57.0,13.0,30.13,NNW,332,6.0,8.0,17,0.00,,,0.00,,2013-02-27 07:52:00,
2013-02-27 01:01:00,57.0,14.0,30.14,NW,322,5.0,7.0,18,0.00,,,0.00,,2013-02-27 08:01:00,
2013-02-27 01:11:00,57.0,14.0,30.14,NW,322,5.0,7.0,18,0.00,,,0.00,,2013-02-27 08:11:00,
2013-02-27 01:21:00,56.0,13.0,30.14,NW,319,5.0,9.0,18,0.00,,,0.00,,2013-02-27 08:21:00,
2013-02-27 01:31:00,55.0,12.0,30.14,NNW,331,5.0,6.0,18,0.00,,,0.00,,2013-02-27 08:31:00,
2013-02-27 01:41:00,55.0,12.0,30.14,NNW,331,5.0,6.0,18,0.00,,,0.00,,2013-02-27 08:41:00,
2013-02-27 01:52:00,55.0,14.0,30.14,North,4,4.0,5.0,19,0.00,,,0.00,,2013-02-27 08:52:00,
2013-02-27 02:01:00,55.0,14.0,30.14,NNW,347,5.0,6.0,19,0.00,,,0.00,,2013-02-27 09:01:00,
2013-02-27 02:11:00,55.0,14.0,30.14,NNW,347,5.0,6.0,19,0.00,,,0.00,,2013-02-27 09:11:00,
2013-02-27 02:21:00,55.0,15.0,30.13,NNW,339,5.0,7.0,20,0.00,,,0.00,,2013-02-27 09:21:00,
2013-02-27 02:31:00,54.0,14.0,30.13,North,4,6.0,8.0,20,0.00,,,0.00,,2013-02-27 09:31:00,
2013-02-27 02:41:00,54.0,14.0,30.13,North,4,6.0,8.0,20,0.00,,,0.00,,2013-02-27 09:41:00,
2013-02-27 02:51:00,54.0,14.0,30.14,North,349,3.0,5.0,20,0.00,,,0.00,,2013-02-27 09:51:00,
2013-02-27 03:01:00,53.0,14.0,30.13,North,354,4.0,4.0,21,0.00,,,0.00,,2013-02-27 10:01:00,
2013-02-27 03:12:00,53.0,14.0,30.13,North,354,4.0,4.0,21,0.00,,,0.00,,2013-02-27 10:12:00,
2013-02-27 03:21:00,53.0,14.0,30.14,North,354,6.0,9.0,21,0.00,,,0.00,,2013-02-27 10:21:00,
2013-02-27 03:31:00,54.0,15.0,30.14,NNW,335,7.0,11.0,21,0.00,,,0.00,,2013-02-27 10:31:00,
2013-02-27 03:41:00,54.0,15.0,30.14,NNW,335,7.0,11.0,21,0.00,,,0.00,,2013-02-27 10:41:00,
2013-02-27 03:52:00,54.0,15.0,30.14,North,356,8.0,11.0,21,0.00,,,0.00,,2013-02-27 10:52:00,
2013-02-27 04:01:00,54.0,15.0,30.14,ENE,58,6.0,8.0,21,0.00,,,0.00,,2013-02-27 11:01:00,
2013-02-27 04:11:00,54.0,15.0,30.14,ENE,58,6.0,8.0,21,0.00,,,0.00,,2013-02-27 11:11:00,
2013-02-27 04:21:00,53.0,15.0,30.14,ENE,63,4.0,7.0,22,0.00,,,0.00,,2013-02-27 11:21:00,
2013-02-27 04:31:00,53.0,16.0,30.15,NNE,23,5.0,5.0,23,0.00,,,0.00,,2013-02-27 11:31:00,
2013-02-27 04:41:00,53.0,16.0,30.15,NNE,23,5.0,5.0,23,0.00,,,0.00,,2013-02-27 11:41:00,
2013-02-27 04:52:00,52.0,14.0,30.14,NNE,32,5.0,8.0,22,0.00,,,0.00,,2013-02-27 11:52:00,
2013-02-27 05:01:00,53.0,15.0,30.15,North,357,4.0,8.0,22,0.00,,,0.00,,2013-02-27 12:01:00,
2013-02-27 05:12:00,53.0,15.0,30.15,North,357,4.0,8.0,22,0.00,,,0.00,,2013-02-27 12:12:00,
2013-02-27 05:21:00,53.0,15.0,30.14,NNW,336,8.0,12.0,22,0.00,,,0.00,,2013-02-27 12:21:00,
2013-02-27 05:32:00,54.0,15.0,30.15,North,350,10.0,10.0,21,0.00,,,0.00,,2013-02-27 12:32:00,
2013-02-27 05:41:00,54.0,15.0,30.15,North,350,10.0,10.0,21,0.00,,,0.00,,2013-02-27 12:41:00,
2013-02-27 05:52:00,54.0,15.0,30.16,North,355,8.0,14.0,21,0.00,,,0.00,,2013-02-27 12:52:00,
2013-02-27 06:01:00,54.0,15.0,30.16,NNW,341,6.0,7.0,21,0.00,,,0.00,,2013-02-27 13:01:00,
2013-02-27 06:11:00,54.0,15.0,30.16,NNW,341,6.0,7.0,21,0.00,,,0.00,,2013-02-27 13:11:00,
2013-02-27 06:21:00,53.0,14.0,30.17,North,354,7.0,12.0,21,0.00,,,0.00,,2013-02-27 13:21:00,
2013-02-27 06:31:00,53.0,15.0,30.18,NNW,327,7.0,11.0,22,0.00,,,0.00,,2013-02-27 13:31:00,
2013-02-27 06:41:00,53.0,15.0,30.18,NNW,327,7.0,11.0,22,0.00,,,0.00,,2013-02-27 13:41:00,
2013-02-27 06:52:00,52.0,14.0,30.17,NNE,12,6.0,9.0,22,0.00,,,0.00,,2013-02-27 13:52:00,
2013-02-27 07:01:00,52.0,14.0,30.18,North,6,6.0,8.0,22,0.00,,,0.00,,2013-02-27 14:01:00,
2013-02-27 07:11:00,52.0,14.0,30.18,North,6,6.0,8.0,22,0.00,,,0.00,,2013-02-27 14:11:00,
2013-02-27 07:21:00,52.0,14.0,30.19,NNW,339,7.0,10.0,22,0.00,,,0.00,,2013-02-27 14:21:00,
2013-02-27 07:31:00,52.0,14.0,30.19,North,8,5.0,7.0,22,0.00,,,0.00,,2013-02-27 14:31:00,
2013-02-27 07:41:00,52.0,14.0,30.19,North,8,5.0,7.0,22,0.00,,,0.00,,2013-02-27 14:41:00,
2013-02-27 07:52:00,52.0,15.0,30.20,North,354,6.0,8.0,23,0.00,,,0.00,,2013-02-27 14:52:00,
2013-02-27 08:01:00,52.0,15.0,30.20,NNE,12,3.0,9.0,23,0.00,,,0.00,,2013-02-27 15:01:00,
2013-02-27 08:11:00,52.0,15.0,30.20,NNE,12,3.0,9.0,23,0.00,,,0.00,,2013-02-27 15:11:00,
2013-02-27 08:21:00,54.0,16.0,30.22,North,350,5.0,7.0,22,0.00,,,0.00,,2013-02-27 15:21:00,
2013-02-27 08:31:00,54.0,16.0,30.22,NNW,348,4.0,5.0,22,0.00,,,0.00,,2013-02-27 15:31:00,
2013-02-27 08:41:00,54.0,16.0,30.22,NNW,348,4.0,5.0,22,0.00,,,0.00,,2013-02-27 15:41:00,
2013-02-27 08:52:00,56.0,17.0,30.24,NNW,343,6.0,10.0,21,0.00,,,0.00,,2013-02-27 15:52:00,
2013-02-27 09:01:00,57.0,16.0,30.24,NNE,16,5.0,9.0,20,0.00,,,0.00,,2013-02-27 16:01:00,
2013-02-27 09:11:00,57.0,16.0,30.24,NNE,16,5.0,9.0,20,0.00,,,0.00,,2013-02-27 16:11:00,
2013-02-27 09:21:00,59.0,17.0,30.24,North,10,5.0,11.0,19,0.00,,,0.00,,2013-02-27 16:21:00,
2013-02-27 09:31:00,59.0,16.0,30.25,NNE,12,11.0,13.0,18,0.00,,,0.00,,2013-02-27 16:31:00,
2013-02-27 09:41:00,59.0,16.0,30.25,NNE,12,11.0,13.0,18,0.00,,,0.00,,2013-02-27 16:41:00,
2013-02-27 09:52:00,61.0,16.0,30.25,NNE,19,10.0,13.0,17,0.00,,,0.00,,2013-02-27 16:52:00,
2013-02-27 10:01:00,61.0,16.0,30.25,NNW,337,12.0,15.0,17,0.00,,,0.00,,2013-02-27 17:01:00,
2013-02-27 10:11:00,61.0,16.0,30.25,NNW,337,12.0,15.0,17,0.00,,,0.00,,2013-02-27 17:11:00,
2013-02-27 10:21:00,62.0,15.0,30.26,NNE,12,14.0,24.0,16,0.00,,,0.00,,2013-02-27 17:21:00,
2013-02-27 10:32:00,62.0,14.0,30.26,North,9,14.0,18.0,15,0.00,,,0.00,,2013-02-27 17:32:00,
2013-02-27 10:41:00,62.0,14.0,30.26,North,9,14.0,18.0,15,0.00,,,0.00,,2013-02-27 17:41:00,
2013-02-27 10:52:00,63.0,15.0,30.26,NNE,30,13.0,20.0,15,0.00,,,0.00,,2013-02-27 17:52:00,
2013-02-27 11:01:00,63.0,15.0,30.26,NNE,13,11.0,16.0,15,0.00,,,0.00,,2013-02-27 18:01:00,
2013-02-27 11:11:00,63.0,15.0,30.26,NNE,13,11.0,16.0,15,0.00,,,0.00,,2013-02-27 18:11:00,
2013-02-27 11:21:00,64.0,14.0,30.25,North,354,11.0,13.0,14,0.00,,,0.00,,2013-02-27 18:21:00,
2013-02-27 11:31:00,65.0,15.0,30.26,NNE,18,8.0,15.0,14,0.00,,,0.00,,2013-02-27 18:31:00,
2013-02-27 11:42:00,65.0,15.0,30.26,NNE,18,8.0,15.0,14,0.00,,,0.00,,2013-02-27 18:42:00,
2013-02-27 11:52:00,65.0,15.0,30.27,NNE,23,8.0,17.0,14,0.00,,,0.00,,2013-02-27 18:52:00,
2013-02-27 12:01:00,66.0,14.0,30.26,North,354,10.0,12.0,13,0.00,,,0.00,,2013-02-27 19:01:00,
2013-02-27 12:11:00,66.0,14.0,30.26,North,354,10.0,12.0,13,0.00,,,0.00,,2013-02-27 19:11:00,
2013-02-27 12:21:00,67.0,13.0,30.26,NNE,22,11.0,14.0,12,0.00,,,0.00,,2013-02-27 19:21:00,
2013-02-27 12:32:00,68.0,15.0,30.26,North,352,9.0,12.0,13,0.00,,,0.00,,2013-02-27 19:32:00,
2013-02-27 12:41:00,68.0,15.0,30.26,North,352,9.0,12.0,13,0.00,,,0.00,,2013-02-27 19:41:00,
2013-02-27 12:52:00,68.0,14.0,30.25,North,350,8.0,10.0,12,0.00,,,0.00,,2013-02-27 19:52:00,
2013-02-27 13:01:00,68.0,12.0,30.24,NNW,342,9.0,16.0,11,0.00,,,0.00,,2013-02-27 20:01:00,
2013-02-27 13:11:00,68.0,12.0,30.24,NNW,342,9.0,16.0,11,0.00,,,0.00,,2013-02-27 20:11:00,
2013-02-27 13:21:00,69.0,12.0,30.24,NNW,335,8.0,16.0,11,0.00,,,0.00,,2013-02-27 20:21:00,
2013-02-27 13:31:00,69.0,10.0,30.23,NNW,348,9.0,11.0,10,0.00,,,0.00,,2013-02-27 20:31:00,
2013-02-27 13:41:00,69.0,10.0,30.23,NNW,348,9.0,11.0,10,0.00,,,0.00,,2013-02-27 20:41:00,
2013-02-27 13:52:00,70.0,11.0,30.22,NNW,344,9.0,13.0,10,0.00,,,0.00,,2013-02-27 20:52:00,
2013-02-27 14:01:00,70.0,9.0,30.22,NNW,329,12.0,18.0,9,0.00,,,0.00,,2013-02-27 21:01:00,
2013-02-27 14:11:00,70.0,9.0,30.22,NNW,329,12.0,18.0,9,0.00,,,0.00,,2013-02-27 21:11:00,
2013-02-27 14:21:00,69.0,5.0,30.21,NNW,333,14.0,21.0,8,0.00,,,0.00,,2013-02-27 21:21:00,
2013-02-27 14:31:00,69.0,8.0,30.21,NW,322,13.0,19.0,9,0.00,,,0.00,,2013-02-27 21:31:00,
2013-02-27 14:41:00,69.0,8.0,30.21,NW,322,13.0,19.0,9,0.00,,,0.00,,2013-02-27 21:41:00,
2013-02-27 14:52:00,69.0,8.0,30.20,North,4,11.0,15.0,9,0.00,,,0.00,,2013-02-27 21:52:00,
2013-02-27 15:01:00,69.0,10.0,30.20,NNW,343,10.0,11.0,10,0.00,,,0.00,,2013-02-27 22:01:00,
2013-02-27 15:11:00,69.0,10.0,30.20,NNW,343,10.0,11.0,10,0.00,,,0.00,,2013-02-27 22:11:00,
2013-02-27 15:21:00,69.0,10.0,30.20,NNW,327,10.0,12.0,10,0.00,,,0.00,,2013-02-27 22:21:00,
2013-02-27 15:31:00,69.0,10.0,30.19,ENE,66,9.0,11.0,10,0.00,,,0.00,,2013-02-27 22:31:00,
2013-02-27 15:41:00,69.0,10.0,30.19,ENE,66,9.0,11.0,10,0.00,,,0.00,,2013-02-27 22:41:00,
2013-02-27 15:52:00,69.0,8.0,30.19,North,359,11.0,16.0,9,0.00,,,0.00,,2013-02-27 22:52:00,
2013-02-27 16:01:00,68.0,7.0,30.19,North,354,11.0,13.0,9,0.00,,,0.00,,2013-02-27 23:01:00,
2013-02-27 16:11:00,68.0,7.0,30.19,North,354,11.0,13.0,9,0.00,,,0.00,,2013-02-27 23:11:00,
2013-02-27 16:21:00,69.0,10.0,30.19,NNW,333,10.0,12.0,10,0.00,,,0.00,,2013-02-27 23:21:00,
2013-02-27 16:31:00,68.0,9.0,30.19,North,8,11.0,18.0,10,0.00,,,0.00,,2013-02-27 23:31:00,
2013-02-27 16:42:00,68.0,9.0,30.19,North,8,11.0,18.0,10,0.00,,,0.00,,2013-02-27 23:42:00,
2013-02-27 16:52:00,68.0,9.0,30.19,NW,314,9.0,13.0,10,0.00,,,0.00,,2013-02-27 23:52:00,
2013-02-27 17:01:00,68.0,12.0,30.18,North,4,7.0,9.0,11,0.00,,,0.00,,2013-02-28 00:01:00,
2013-02-27 17:21:00,68.0,9.0,30.18,NNW,348,10.0,12.0,10,0.00,,,0.00,,2013-02-28 00:21:00,
2013-02-27 17:31:00,67.0,11.0,30.18,NW,318,6.0,12.0,11,0.00,,,0.00,,2013-02-28 00:31:00,
2013-02-27 17:42:00,67.0,11.0,30.18,NW,318,6.0,12.0,11,0.00,,,0.00,,2013-02-28 00:42:00,
2013-02-27 17:52:00,67.0,11.0,30.18,North,354,3.0,8.0,11,0.00,,,0.00,,2013-02-28 00:52:00,
2013-02-27 18:01:00,67.0,9.0,30.18,NW,321,8.0,12.0,10,0.00,,,0.00,,2013-02-28 01:01:00,
2013-02-27 18:11:00,67.0,9.0,30.18,NW,321,8.0,12.0,10,0.00,,,0.00,,2013-02-28 01:11:00,
2013-02-27 18:21:00,67.0,11.0,30.18,North,359,8.0,9.0,11,0.00,,,0.00,,2013-02-28 01:21:00,
2013-02-27 18:31:00,66.0,12.0,30.18,North,359,5.0,8.0,12,0.00,,,0.00,,2013-02-28 01:31:00,
2013-02-27 18:41:00,66.0,12.0,30.18,North,359,5.0,8.0,12,0.00,,,0.00,,2013-02-28 01:41:00,
2013-02-27 18:52:00,65.0,11.0,30.19,North,4,5.0,6.0,12,0.00,,,0.00,,2013-02-28 01:52:00,
2013-02-27 19:01:00,64.0,10.0,30.19,North,9,5.0,5.0,12,0.00,,,0.00,,2013-02-28 02:01:00,
2013-02-27 19:11:00,64.0,10.0,30.19,North,9,5.0,5.0,12,0.00,,,0.00,,2013-02-28 02:11:00,
2013-02-27 19:21:00,63.0,11.0,30.19,North,350,4.0,5.0,13,0.00,,,0.00,,2013-02-28 02:21:00,
2013-02-27 19:31:00,62.0,9.0,30.19,North,0,3.0,4.0,12,0.00,,,0.00,,2013-02-28 02:31:00,
2013-02-27 19:41:00,62.0,9.0,30.19,North,0,3.0,4.0,12,0.00,,,0.00,,2013-02-28 02:41:00,
2013-02-27 19:52:00,62.0,9.0,30.19,North,0,3.0,4.0,12,0.00,,,0.00,,2013-02-28 02:52:00,
2013-02-27 20:01:00,61.0,11.0,30.19,North,354,1.0,3.0,14,0.00,,,0.00,,2013-02-28 03:01:00,
2013-02-27 20:11:00,61.0,11.0,30.19,North,354,1.0,3.0,14,0.00,,,0.00,,2013-02-28 03:11:00,
2013-02-27 20:21:00,59.0,11.0,30.20,North,354,0.0,1.0,15,0.00,,,0.00,,2013-02-28 03:21:00,
2013-02-27 20:31:00,58.0,12.0,30.21,North,354,0.0,1.0,16,0.00,,,0.00,,2013-02-28 03:31:00,
2013-02-27 20:41:00,58.0,12.0,30.21,North,354,0.0,1.0,16,0.00,,,0.00,,2013-02-28 03:41:00,
2013-02-27 20:52:00,56.0,13.0,30.21,NNW,327,2.0,3.0,18,0.00,,,0.00,,2013-02-28 03:52:00,
2013-02-27 21:01:00,56.0,13.0,30.21,NNW,328,1.0,5.0,18,0.00,,,0.00,,2013-02-28 04:01:00,
2013-02-27 21:11:00,56.0,13.0,30.21,NNW,328,1.0,5.0,18,0.00,,,0.00,,2013-02-28 04:11:00,
2013-02-27 21:21:00,54.0,14.0,30.22,NW,310,0.0,0.0,20,0.00,,,0.00,,2013-02-28 04:21:00,
2013-02-27 21:31:00,54.0,16.0,30.22,NW,310,0.0,1.0,22,0.00,,,0.00,,2013-02-28 04:31:00,
2013-02-27 21:41:00,54.0,16.0,30.22,NW,310,0.0,1.0,22,0.00,,,0.00,,2013-02-28 04:41:00,
2013-02-27 21:52:00,53.0,15.0,30.22,NW,322,3.0,4.0,22,0.00,,,0.00,,2013-02-28 04:52:00,
2013-02-27 22:01:00,52.0,14.0,30.22,NW,323,0.0,0.0,22,0.00,,,0.00,,2013-02-28 05:01:00,
2013-02-27 22:22:00,51.0,16.0,30.23,NW,322,2.0,3.0,24,0.00,,,0.00,,2013-02-28 05:22:00,
2013-02-27 22:31:00,51.0,15.0,30.24,NW,317,4.0,5.0,23,0.00,,,0.00,,2013-02-28 05:31:00,
2013-02-27 22:42:00,51.0,15.0,30.24,NW,317,4.0,5.0,23,0.00,,,0.00,,2013-02-28 05:42:00,
2013-02-27 22:52:00,55.0,10.0,30.24,NW,311,5.0,7.0,16,0.00,,,0.00,,2013-02-28 05:52:00,
2013-02-27 23:01:00,56.0,9.0,30.25,NW,322,6.0,8.0,15,0.00,,,0.00,,2013-02-28 06:01:00,
2013-02-27 23:11:00,56.0,9.0,30.25,NW,322,6.0,8.0,15,0.00,,,0.00,,2013-02-28 06:11:00,
2013-02-27 23:21:00,57.0,7.0,30.24,North,354,4.0,5.0,13,0.00,,,0.00,,2013-02-28 06:21:00,
2013-02-27 23:32:00,57.0,8.0,30.25,NW,324,4.0,5.0,14,0.00,,,0.00,,2013-02-28 06:32:00,
2013-02-27 23:41:00,57.0,8.0,30.25,NW,324,4.0,5.0,14,0.00,,,0.00,,2013-02-28 06:41:00,
2013-02-27 23:52:00,56.0,6.0,30.25,NW,322,7.0,9.0,13,0.00,,,0.00,,2013-02-28 06:52:00,